Lincoln, NE

7:54 AM CST on December 11, 2016 (GMT -0600)
Lincoln Municipal

Weather History for KLNK - September, 2013

Change the Weather History Date:

Sunday, September 22, 2013

  Actual Average Record
Temperature  
Mean Temperature 67 °F 63 °F  
Max Temperature 82 °F 76 °F 99 °F (1937)
Min Temperature 51 °F 50 °F 27 °F (1995)
Degree Days  
Heating Degree Days 0 4  
Month to date heating degree days 17 47  
Since 1 July heating degree days 20 53  
Cooling Degree Days 2 3  
Month to date cooling degree days 174 108  
Year to date cooling degree days 1189 1143  
Growing Degree Days 17 (Base 50)    
Moisture  
Dew Point 50 °F    
Average Humidity 64    
Maximum Humidity 96    
Minimum Humidity 32    
Precipitation  
Precipitation 0.00 in 0.09 in 2.62 in (2001)
Month to date precipitation 1.75 2.32  
Year to date precipitation 22.20 23.90  
Snow  
Snow 0.00 in 0.00 in - ()
Month to date snowfall 0.0 0.0  
Since 1 July snowfall 0.0 0.0  
Snow Depth 0.00 in    
Sea Level Pressure  
Sea Level Pressure 29.83 in    
Wind  
Wind Speed 14 mph (South)    
Max Wind Speed 28 mph    
Max Gust Speed 35 mph    
Visibility 10 miles    
Events      
T = Trace of Precipitation, MM = Missing Value Source: NWS Daily Summary

Daily Weather History Graph

Daily Weather History Graph

Search for Another Location

Airport or City:

Trip Planner

Search our weather history database for the weather conditions in past years. The results will help you decide how hot, cold, wet, or windy it might be!

Date:

Astronomy

Sep. 22, 2013 Rise Set
Actual Time 7:14 AM CDT 7:23 PM CDT
Civil Twilight 6:47 AM CDT 7:51 PM CDT
Nautical Twilight 6:15 AM CDT 8:23 PM CDT
Astronomical Twilight 5:42 AM CDT 8:55 PM CDT
Moon 9:12 PM CDT (9/22) 10:37 AM CDT (9/22)
Length of Visible Light 13h 03m
Length of Day
12h 08m
Waning Gibbous, 88% of the Moon is Illuminated
Sep 22
Waning Gibbous
Sep 26
Last Quarter
Oct 4
New
Oct 11
First Quarter
Oct 18
Full

Hourly Weather History & Observations

Time (CDT) Temp. Dew Point Humidity Pressure Visibility Wind Dir Wind Speed Gust Speed Precip Events Conditions
12:54 AM 57.9 °F 53.1 °F 84% 29.86 in 10.0 mi South 8.1 mph - N/A   Clear
1:54 AM 57.0 °F 52.0 °F 83% 29.86 in 10.0 mi South 6.9 mph - N/A   Clear
2:54 AM 57.0 °F 52.0 °F 83% 29.86 in 10.0 mi South 8.1 mph - N/A   Clear
3:54 AM 54.0 °F 51.1 °F 90% 29.86 in 10.0 mi South 8.1 mph - N/A   Clear
4:54 AM 54.0 °F 50.0 °F 86% 29.86 in 10.0 mi South 8.1 mph - N/A   Clear
5:54 AM 53.1 °F 50.0 °F 89% 29.86 in 10.0 mi South 8.1 mph - N/A   Clear
6:54 AM 52.0 °F 50.0 °F 93% 29.88 in 10.0 mi South 6.9 mph - N/A   Clear
7:54 AM 54.0 °F 51.1 °F 90% 29.88 in 10.0 mi South 6.9 mph - N/A   Clear
8:54 AM 63.0 °F 53.1 °F 70% 29.89 in 10.0 mi South 5.8 mph - N/A   Clear
9:54 AM 70.0 °F 51.1 °F 51% 29.88 in 10.0 mi South 16.1 mph - N/A   Clear
10:54 AM 73.9 °F 51.1 °F 45% 29.88 in 10.0 mi South 16.1 mph - N/A   Clear
11:54 AM 77.0 °F 51.1 °F 40% 29.86 in 10.0 mi South 19.6 mph 25.3 mph N/A   Clear
12:54 PM 80.1 °F 50.0 °F 35% 29.85 in 10.0 mi South 24.2 mph 31.1 mph N/A   Clear
1:54 PM 80.1 °F 48.9 °F 34% 29.82 in 10.0 mi South 21.9 mph 32.2 mph N/A   Clear
2:54 PM 81.0 °F 48.0 °F 31% 29.80 in 10.0 mi South 21.9 mph 28.8 mph N/A   Clear
3:54 PM 81.0 °F 50.0 °F 34% 29.78 in 10.0 mi South 18.4 mph 29.9 mph N/A   Clear
4:54 PM 80.1 °F 48.9 °F 34% 29.78 in 10.0 mi South 17.3 mph 25.3 mph N/A   Clear
5:54 PM 78.1 °F 46.9 °F 33% 29.78 in 10.0 mi SSE 19.6 mph 24.2 mph N/A   Clear
6:54 PM 73.9 °F 48.0 °F 40% 29.78 in 10.0 mi SSE 16.1 mph 24.2 mph N/A   Clear
7:54 PM 71.1 °F 48.0 °F 44% 29.79 in 10.0 mi SSE 13.8 mph - N/A   Clear
8:54 PM 68.0 °F 51.1 °F 55% 29.80 in 10.0 mi SSE 11.5 mph - N/A   Clear
9:54 PM 66.0 °F 50.0 °F 56% 29.80 in 10.0 mi SSE 13.8 mph - N/A   Clear
10:54 PM 64.0 °F 50.0 °F 60% 29.80 in 10.0 mi SSE 16.1 mph - N/A   Clear
11:54 PM 63.0 °F 48.9 °F 60% 29.81 in 10.0 mi South 16.1 mph 23.0 mph N/A   Clear